Weather Service Report


616 
ASUS45 KREV 181410
RWRNV 
NEVADA REGIONAL WEATHER ROUNDUP
NATIONAL WEATHER SERVICE RENO NV
600 AM PST SUN FEB 18 2018

NOTE: "FAIR" INDICATES FEW OR NO CLOUDS BELOW 12,000 FEET WITH NO
SIGNIFICANT WEATHER AND/OR OBSTRUCTIONS TO VISIBILITY.

NVZ001-003-004-181500-
WESTERN NEVADA
  
CITY           SKY/WX    TMP DP  RH WIND       PRES   REMARKS
RENO           MOCLDY    46  25  43 VRB3      29.73F                  
CARSON CITY    CLOUDY    46  23  39 SW13G31   29.79F                  
MINDEN         FAIR      45  23  42 SW18G31   29.82S                  
SLIDE MTN        N/A     23  23 100 SW61        N/A  WCI   0          
FALLON         PTCLDY    48  19  31 W15       29.73F                  
LOVELOCK       PTCLDY    47  26  44 SW25G31   29.68F                  
HAWTHORNE      CLEAR     52  16  24 SE20G26   29.73S                  
$$

NVZ002-CAZ072-073-181500-
NORTHERN AND CENTRAL SIERRA
  
CITY           SKY/WX    TMP DP  RH WIND       PRES   REMARKS
S. LAKE TAHOE  MOCLDY    37  23  56 S18G35    29.81F                  
TRUCKEE        PTCLDY    36  25  64 SW10G17   29.80F                  
SQUAW VLY 8000   N/A     28  23  80 SW21        N/A                   
SUSANVILLE     MOCLDY    43  28  56 W14G21    29.74F                  
BLUE CANYON    CLEAR     35  30  82 S15       29.88F                  
MAMMOTH LAKES  MOCLDY    42  16  35 W14G24    29.89F                  
$$

NVZ030-031-036-181500-
NORTHERN NEVADA
  
CITY           SKY/WX    TMP DP  RH WIND       PRES   REMARKS
ELKO           CLOUDY    45  26  47 W18G26    29.62S                  
WINNEMUCCA     LGT RAIN  45  28  51 W12       29.66F                  
WENDOVER       CLOUDY    51  17  26 SW14G23   29.58F                  
$$

NVZ035-037-181500-
CENTRAL NEVADA
  
CITY           SKY/WX    TMP DP  RH WIND       PRES   REMARKS
ELY            CLEAR     35  11  36 S14       29.72F                  
EUREKA           N/A     27  15  61 S8        29.71F                  
$$

NVZ013-014-181500-
SOUTH CENTRAL NEVADA
  
CITY           SKY/WX    TMP DP  RH WIND       PRES   REMARKS
TONOPAH        PTCLDY    22   9  57 N6        29.84F                  
$$

NVZ017-020-022-181500-
SOUTHERN NEVADA
  
CITY           SKY/WX    TMP DP  RH WIND       PRES   REMARKS
LAS VEGAS      CLEAR     47  22  37 W5        29.85F                  
N. LAS VEGAS   CLEAR     43  21  41 CALM      29.84F                  
NELLIS AFB     CLEAR     45  25  46 CALM      29.84F                  
HENDERSON      CLEAR     50  16  25 S15       29.85F                  
MERCURY        CLEAR     32  14  47 VRB3      29.84S                  
$$
  

Return to Home page


Western Regional Climate Center, wrcc@dri.edu